"Period start","avg(HW err(1)/warn(2) (#))","avg(Visibility (m))","avg(Weather code (#))","avg(Precip intensity (mm/h))","min(HW err(1)/warn(2) (#))","max(HW err(1)/warn(2) (#))","std(HW err(1)/warn(2) (#))","med(HW err(1)/warn(2) (#))","min(Visibility (m))","max(Visibility (m))","std(Visibility (m))","med(Visibility (m))","min(Weather code (#))","max(Weather code (#))","std(Weather code (#))","med(Weather code (#))","min(Precip intensity (mm/h))","max(Precip intensity (mm/h))","std(Precip intensity (mm/h))","med(Precip intensity (mm/h))"
2014-12-31 00:00:00,2,49912,0,0.00,2,2,0,2,49117,50000,265,50000,0,0,0,0,0.00,0.00,0.00,0.00
2014-12-31 00:10:00,2,50000,0,0.00,2,2,0,2,50000,50000,0,50000,0,0,0,0,0.00,0.00,0.00,0.00
2014-12-31 00:20:00,2,48620,0,0.00,2,2,0,2,38519,50000,3437,50000,0,0,0,0,0.00,0.00,0.00,0.00
2014-12-31 00:30:00,2,49877,0,0.00,1,2,0,2,49016,50000,325,50000,0,0,0,0,0.00,0.00,0.00,0.00
2014-12-31 00:40:00,1,37500,,0.00,1,2,0,1,0,50000,21651,50000,,,,,0.00,0.00,0.00,0.00
2014-12-31 00:50:00,1,,,,1,1,0,1,,,,,,,,,,,,
2014-12-31 01:00:00,2,37114,0,0.00,1,2,0,2,14514,50000,14940,50000,0,0,0,0,0.00,0.00,0.00,0.00
2014-12-31 01:10:00,2,7084,66,0.07,2,2,0,2,4544,12699,2602,6202,40,77,17,77,0.00,0.20,0.06,0.05
2014-12-31 01:20:00,2,7634,74,0.05,2,2,0,2,6517,9533,1067,7504,71,77,3,74,0.05,0.05,0.00,0.05
2014-12-31 01:30:00,2,11116,78,0.01,2,2,0,2,9678,12238,781,11353,78,78,0,78,0.00,0.05,0.02,0.00
2014-12-31 01:40:00,2,10469,78,0.02,2,2,0,2,8761,12278,1206,10592,78,78,0,78,0.00,0.05,0.02,0.00
2014-12-31 01:50:00,2,6034,74,0.09,2,2,0,2,3937,9616,1744,5392,71,78,4,74,0.05,0.15,0.04,0.08
2014-12-31 02:00:00,2,13356,78,0.01,2,2,0,2,9913,18609,2979,12215,77,78,0,78,0.00,0.05,0.02,0.00
2014-12-31 02:10:00,2,14404,78,0.02,2,2,0,2,8639,28056,7155,9443,78,78,0,78,0.00,0.05,0.02,0.00
2014-12-31 02:20:00,2,10771,78,0.03,2,2,0,2,6646,16861,3710,9112,78,78,0,78,0.00,0.05,0.02,0.05
2014-12-31 02:30:00,2,13818,78,0.02,2,2,0,2,9430,18399,2899,14167,77,78,0,78,0.00,0.05,0.02,0.00
2014-12-31 02:40:00,2,10144,72,0.15,2,2,0,2,2552,15101,3557,10722,71,77,2,71,0.05,0.55,0.15,0.10
2014-12-31 02:50:00,2,6745,71,0.41,2,2,0,2,4449,10666,2054,6486,71,71,0,71,0.05,0.75,0.21,0.40
2014-12-31 03:00:00,2,14442,71,0.11,2,2,0,2,7891,21152,4297,14139,71,71,0,71,0.00,0.40,0.14,0.05
2014-12-31 03:10:00,2,9622,71,0.29,2,2,0,2,4954,12977,2555,9923,71,71,0,71,0.00,1.25,0.37,0.15
2014-12-31 03:20:00,2,8008,71,0.14,2,2,0,2,4396,11179,1606,8196,71,71,0,71,0.05,0.45,0.12,0.12
2014-12-31 03:30:00,2,3973,71,0.39,2,2,0,2,2174,6584,1355,3407,71,71,0,71,0.15,0.70,0.17,0.30
2014-12-31 03:40:00,2,6306,71,0.24,2,2,0,2,3787,8743,1443,6511,71,71,0,71,0.05,0.85,0.23,0.15
2014-12-31 03:50:00,2,8296,72,0.09,2,2,0,2,3730,12919,2823,8316,71,77,2,71,0.05,0.25,0.06,0.05
2014-12-31 04:00:00,2,15438,73,0.12,2,2,0,2,10206,21275,3920,15402,71,77,3,71,0.00,0.40,0.15,0.05
2014-12-31 04:10:00,2,31316,71,0.03,2,2,0,2,14209,50000,13283,30256,71,71,0,71,0.00,0.15,0.05,0.00
2014-12-31 04:20:00,2,39829,75,0.00,2,2,0,2,16035,50000,12252,47334,71,77,3,77,0.00,0.00,0.00,0.00
2014-12-31 04:30:00,2,10849,76,0.00,1,2,0,2,0,14321,4906,12617,71,77,2,77,0.00,0.00,0.00,0.00
2014-12-31 04:40:00,1,,,,1,1,0,1,,,,,,,,,,,,
2014-12-31 04:50:00,1,12428,74,0.03,1,2,0,1,8771,16085,3657,12428,71,77,3,74,0.00,0.05,0.03,0.03
2014-12-31 05:00:00,2,18685,72,0.07,2,2,0,2,8227,28315,5359,18307,71,77,2,71,0.00,0.40,0.12,0.00
2014-12-31 05:10:00,2,18313,72,0.06,2,2,0,2,12558,26703,4434,17102,71,77,2,71,0.00,0.15,0.05,0.05
2014-12-31 05:20:00,2,6261,76,0.07,2,2,0,2,3653,11703,2823,4694,71,77,2,77,0.00,0.15,0.05,0.05
2014-12-31 05:30:00,2,5134,77,0.06,2,2,0,2,4128,5871,553,5194,77,77,0,77,0.05,0.10,0.02,0.05
2014-12-31 05:40:00,2,5095,77,0.05,2,2,0,2,4187,6161,657,4984,77,77,0,77,0.05,0.05,0.00,0.05
2014-12-31 05:50:00,2,29655,76,0.01,2,2,0,2,8277,50000,16665,30190,71,77,2,77,0.00,0.05,0.02,0.00
2014-12-31 06:00:00,2,21766,67,0.04,2,2,0,2,8130,48811,13647,15860,41,77,13,71,0.00,0.15,0.05,0.00
2014-12-31 06:10:00,2,15369,73,0.02,2,2,0,2,8928,23802,4557,15808,71,77,3,71,0.00,0.10,0.03,0.00
2014-12-31 06:20:00,2,38903,76,0.00,2,2,0,2,14723,50000,13941,48384,71,77,2,77,0.00,0.00,0.00,0.00
2014-12-31 06:30:00,2,12597,76,0.01,2,2,0,2,10640,21135,2973,11680,71,77,2,77,0.00,0.05,0.02,0.00
2014-12-31 06:40:00,2,34821,75,0.01,2,2,0,2,13184,49664,11719,36599,71,77,3,77,0.00,0.05,0.02,0.00
2014-12-31 06:50:00,2,49885,8,0.00,2,2,0,2,49095,50000,273,50000,0,77,23,0,0.00,0.00,0.00,0.00
2014-12-31 07:00:00,2,31188,7,0.00,2,2,0,2,10660,50000,15976,30064,0,71,21,0,0.00,0.00,0.00,0.00
2014-12-31 07:10:00,2,20542,73,0.01,2,2,0,2,11746,36717,9133,15510,71,77,3,71,0.00,0.05,0.02,0.00
2014-12-31 07:20:00,2,23372,77,0.03,2,2,0,2,15464,30419,4125,23242,71,78,2,78,0.00,0.10,0.03,0.00
2014-12-31 07:30:00,2,13322,76,0.02,2,2,0,2,8541,20649,3042,12930,71,78,3,77,0.00,0.05,0.02,0.00
2014-12-31 07:40:00,2,13504,77,0.01,2,2,0,2,7817,20429,4121,12996,77,78,0,77,0.00,0.05,0.02,0.00
2014-12-31 07:50:00,2,5804,75,0.08,2,2,0,2,3638,7904,1265,5608,71,78,3,78,0.05,0.20,0.05,0.05
2014-12-31 08:00:00,2,7890,74,0.06,2,2,0,2,4807,9599,1417,8344,71,78,3,71,0.00,0.15,0.04,0.05
2014-12-31 08:10:00,2,7608,75,0.12,2,2,0,2,4628,11882,2264,6980,71,78,3,77,0.00,0.35,0.11,0.08
2014-12-31 08:20:00,2,7524,71,0.08,2,2,0,2,5468,9756,1409,7312,71,71,0,71,0.00,0.15,0.05,0.08
2014-12-31 08:30:00,2,9730,72,0.07,2,2,0,2,4886,13155,2511,10255,71,77,2,71,0.00,0.25,0.08,0.05
2014-12-31 08:40:00,2,9636,75,0.04,2,2,0,2,7090,15414,2622,8725,71,77,3,77,0.00,0.10,0.04,0.05
2014-12-31 08:50:00,2,9380,77,0.03,2,2,0,2,7886,10643,1071,9856,71,78,2,78,0.00,0.05,0.03,0.03
2014-12-31 09:00:00,2,10202,78,0.03,2,2,0,2,8330,12114,1119,10380,78,78,0,78,0.00,0.05,0.03,0.03
2014-12-31 09:10:00,2,6819,76,0.08,2,2,0,2,5206,8548,884,6663,71,78,3,77,0.05,0.15,0.03,0.08
2014-12-31 09:20:00,2,7584,77,0.06,2,2,0,2,5166,11356,2192,6721,77,78,0,77,0.00,0.10,0.04,0.05
2014-12-31 09:30:00,2,14740,77,0.01,2,2,0,2,11988,19518,2440,13708,77,78,0,77,0.00,0.05,0.02,0.00
2014-12-31 09:40:00,2,13933,77,0.04,2,2,0,2,7433,20145,3794,13908,77,78,0,77,0.00,0.15,0.06,0.00
2014-12-31 09:50:00,2,10982,73,0.08,2,2,0,2,6485,16745,3294,10072,71,77,3,71,0.00,0.20,0.05,0.08
2014-12-31 10:00:00,2,11115,77,0.02,2,2,0,2,8029,13401,1679,11315,77,77,0,77,0.00,0.05,0.02,0.00
2014-12-31 10:10:00,2,12480,77,0.00,2,2,0,2,10019,15217,1452,12706,77,78,0,77,0.00,0.00,0.00,0.00
2014-12-31 10:20:00,2,17102,78,0.00,2,2,0,2,12115,20828,2618,16724,77,78,0,78,0.00,0.00,0.00,0.00
2014-12-31 10:30:00,2,13878,78,0.00,2,2,0,2,9383,20231,3291,14062,78,78,0,78,0.00,0.00,0.00,0.00
2014-12-31 10:40:00,2,8747,78,0.01,2,2,0,2,7512,10202,877,8615,78,78,0,78,0.00,0.05,0.02,0.00
2014-12-31 10:50:00,2,10293,78,0.00,2,2,0,2,7368,14983,2623,9216,78,78,0,78,0.00,0.00,0.00,0.00
2014-12-31 11:00:00,2,10448,78,0.03,2,2,0,2,6791,13067,1967,10598,78,78,0,78,0.00,0.10,0.03,0.03
2014-12-31 11:10:00,2,15399,78,0.03,2,2,0,2,6803,28026,7379,12466,77,78,0,78,0.00,0.20,0.06,0.00
2014-12-31 11:20:00,2,21558,78,0.00,2,2,0,2,9338,31161,8404,25000,77,78,0,78,0.00,0.00,0.00,0.00
2014-12-31 11:30:00,2,9913,78,0.02,2,2,0,2,8332,13779,1499,9448,78,78,0,78,0.00,0.05,0.02,0.00
2014-12-31 11:40:00,2,9847,78,0.01,2,2,0,2,8389,11380,972,9609,78,78,0,78,0.00,0.05,0.02,0.00
2014-12-31 11:50:00,1,12443,78,0.00,1,2,0,1,12443,12443,0,12443,78,78,0,78,0.00,0.00,0.00,0.00
2014-12-31 12:00:00,1,,,,1,1,0,1,,,,,,,,,,,,
2014-12-31 12:10:00,1,,,,1,1,0,1,,,,,,,,,,,,
2014-12-31 12:20:00,1,,,,1,1,0,1,,,,,,,,,,,,
2014-12-31 12:30:00,1,,,,1,1,0,1,,,,,,,,,,,,
2014-12-31 12:40:00,1,,,,1,1,0,1,,,,,,,,,,,,
2014-12-31 12:50:00,1,,,,1,1,0,1,,,,,,,,,,,,
2014-12-31 13:00:00,1,,,,1,1,0,1,,,,,,,,,,,,
2014-12-31 13:10:00,1,,,,1,1,0,1,,,,,,,,,,,,
2014-12-31 13:20:00,1,,,,1,1,0,1,,,,,,,,,,,,
2014-12-31 13:30:00,1,,,,1,1,0,1,,,,,,,,,,,,
2014-12-31 13:40:00,1,,,,1,1,0,1,,,,,,,,,,,,
2014-12-31 13:50:00,1,,,,1,1,0,1,,,,,,,,,,,,
2014-12-31 14:00:00,1,0,,0.00,1,2,0,1,0,0,0,0,,,,,0.00,0.00,0.00,0.00
2014-12-31 14:10:00,1,16667,,0.00,1,2,0,1,0,50000,23570,0,,,,,0.00,0.00,0.00,0.00
2014-12-31 14:20:00,1,48187,,0.00,1,2,0,1,48187,48187,0,48187,,,,,0.00,0.00,0.00,0.00
2014-12-31 14:30:00,1,0,,0.00,1,2,0,1,0,0,0,0,,,,,0.00,0.00,0.00,0.00
2014-12-31 14:40:00,1,,,,1,1,0,1,,,,,,,,,,,,
